Location: McNierney
(34.1937°N, 106.9061°W)
Time: 22:16:07
(UTC+00:00)

NOSS 3-1 (C) - Pass Details

Date: 11 December 2025
Orbit: 618 x 1583 km, 63.4° (Epoch: 10 January)

Event Time Altitude Azimuth Distance (km) Brightness Sun altitude
Exits shadow 12:04:56 22° 336° (NNW) 2,400 5.2 -23.8°
Maximum altitude 12:10:25 76° 59° (ENE) 1,414 4.3 -22.7°
Drops below altitude 10° 12:19:43 10° 145° (SE) 3,701 7.2 -20.9°
Sets 12:22:54 0° 146° (SSE) 4,731 7.8 -20.2°
